Flag for Germany Weather past 2 weeks in Dorsten, North Rhine-Westphalia, Germany

Now
62 °F

Partly sunny.


Feels Like: 62 °F
Forecast: 52 / 67 °F
Wind: 7 mph from Southwest

Location: Essen

Current Time: Jul 29, 2015 at 12:31:18 PM

Latest Report: Jul 29, 2015 at 12:00 PM


Visibility: 12 mi

Pressure: 29.74 "Hg

Humidity: 66%

Dew point: 50 °F

Location of DorstenLocation

Historic Weather in Dorsten — Graph

°F

Dorsten temperature yesterday

Maximum temperature yesterday: 63 °F (at 4:00 PM)
Minimum temperature yesterday: 54 °F (at 6:00 AM)
Average temperature yesterday: 59 °F

Past Weeks' High & Low Weather Summary

 TemperatureHumidityPressure
High88 °F (Jul 17, 5:00 PM)100% (Jul 14, 11:00 PM)30.12 "Hg (Jul 14, 11:00 PM)
Low49 °F (Jul 26, 5:00 AM)30% (Jul 17, 5:00 PM)29.50 "Hg (Jul 25, 7:00 AM)
Average66 °F75%29.89 "Hg
* Reported Jul 14 11:00 AM — Jul 29 11:00 AM, Dorsten, Weather by CustomWeather, © 2015

Note: Actual official high and low records may vary slightly from our data, if they occured in-between our weather recording intervals... More about our weather records

Advertising

Dorsten weather history for previous 24 hours

 ConditionsComfort  
Time TempWeatherWind HumidityBarometerVisibility
11:00 AM
Wed, Jul 29
56 °FLow clouds.3 mph87%29.75 "Hg14 mi
10:00 AM58 °FPartly sunny.5 mph78%29.76 "Hg19 mi
9:00 AM55 °FOvercast.6 mph83%29.77 "Hg19 mi
8:00 AM54 °FOvercast.6 mph85%29.77 "Hg19 mi
7:00 AM53 °FOvercast.5 mph86%29.76 "Hg25 mi
6:00 AM54 °FPartly sunny.6 mph84%29.77 "Hg22 mi
5:00 AM54 °FOvercast.6 mph83%29.77 "Hg22 mi
4:00 AM54 °FPassing clouds.6 mph80%29.77 "Hg25 mi
3:00 AM55 °FOvercast.6 mph72%29.78 "Hg34 mi
2:00 AM55 °FPassing clouds.6 mph70%29.78 "Hg31 mi
1:00 AM56 °FClear.5 mph68%29.78 "Hg34 mi
11:00 PM
Tue, Jul 28
58 °FClear.5 mph62%29.77 "Hg40 mi
10:00 PM59 °FPassing clouds.6 mph58%29.76 "Hg37 mi
9:00 PM61 °FOvercast.7 mph58%29.75 "Hg43 mi
8:00 PM62 °FOvercast.6 mph61%29.74 "Hg34 mi
7:00 PM62 °FOvercast.6 mph64%29.73 "Hg28 mi
6:00 PM62 °FOvercast.6 mph64%29.74 "Hg28 mi
5:00 PM62 °FOvercast.7 mph64%29.73 "Hg28 mi
4:00 PM63 °FOvercast.7 mph63%29.73 "Hg16 mi
3:00 PM61 °FOvercast.10 mph69%29.72 "Hg14 mi
2:00 PM59 °FLow clouds.8 mph80%29.72 "Hg12 mi
1:00 PM60 °FLow clouds.8 mph69%29.72 "Hg17 mi
12:00 PM62 °FOvercast.9 mph66%29.70 "Hg14 mi
Weather by CustomWeather, © 2015

See weather overviewHow to use our weather pages